Regional Weather Roundup
Issued by NWS Goodland, KS

Home | Current Version | Previous Version | Text Only | Print | Product List | Glossary Off
Versions: 1 2 3 4 5 6 7 8 9 10 11 12 13 14 15 16 17 18 19 20 21 22 23 24 25 26 27 28 29 30 31 32 33 34 35 36 37 38 39 40 41 42 43 44 45 46 47 48 49 50

204
ASUS43 KGLD 072208
RWRGLD

GOODLAND FORECAST AREA HOURLY WEATHER ROUNDUP
NATIONAL WEATHER SERVICE GOODLAND KS
300 PM MST SUN FEB 07 2016

...OFFICIAL OBSERVATIONS...

CITY           SKY/WX    TMP DP  RH WIND       PRES   REMARKS
GOODLAND KS    CLOUDY    36  19  50 NW22G31   30.27S
HILL CITY KS   MOSUNNY   40  22  48 NW25G37   30.20F
IMPERIAL NEB   SUNNY     36  19  50 NW28G39   30.23S
MCCOOK NEB     SUNNY     39  22  50 NW24      30.20S
AKRON CO       CLOUDY    29  18  63 N22G31    30.30R WCI  15
BURLINGTON CO  PTSUNNY   34  17  50 N25G32    30.28F
LIMON CO       CLOUDY    27  19  72 N12       30.30S WCI  17
$$

...UNOFFICIAL OBSERVATIONS...

CITY           SKY/WX    TMP DP  RH WIND       PRES   REMARKS
COLBY KS       CLOUDY    36  25  64 NW24      30.24F
GOVE KS          N/A     40  32  73 MISG        N/A
LENORA KS        N/A     38  32  79 MISG        N/A
NORTON KS      SUNNY     39  18  41 W26G37    30.17
SHARON SPRINGS   N/A     37  22  56 NW17G26     N/A
KIT CARSON CO    N/A     33  22  63 MISG        N/A
YUMA CO          N/A     32  22  66 N17         N/A
$$




USA.gov is the U.S. government's official web portal to all federal, state and local government web resources and services.